User: anonymous   Login
Location: Vancouver
(49.2500°N, 123.1330°W)
Time: 23:01:01
(UTC-08:00)
Language:

Iridium 21 - Orbit

View from above orbital plane
View from above orbital plane
View from above satellite
View from above satellite

Ground track
Ground track

The orbit data is extracted from the following two-line orbital elements,

1 25778U 99032B   15062.39040507  .00000372  00000-0  12579-3 0  9993
2 25778 086.3971 213.7105 0001809 090.7471 298.6809 14.34219197828179
Epoch (UTC): 03 March 2015 09:22:10
Eccentricity: 0.0001809
inclination: 86.3971°
perigee height: 776 km
apogee height: 779 km
right ascension of ascending node: 213.7105°
argument of perigee: 90.7471°
revolutions per day: 14.34219197
mean anomaly at epoch: 298.6809°
orbit number at epoch: 82817

The dashed part of the orbit path shows where the satellite is in the earth's shadow,  

DLR